| time (UTC) | temp C | wind direction | speed KPH | gust KPH | rain 1hr cm | rain 24hr cm | rain mn cm | humidity % | barometer mb |
| 20260506165019 | 25 | 169 | 4.8 | 12.9 | 0.00 | 0.00 | 0.00 | 79 | 1010.7 |
| 20260506164525 | 25 | 172 | 4.8 | 11.3 | 0.00 | 0.00 | 0.00 | 79 | 1010.7 |
| 20260506164034 | 25 | 149 | 1.6 | 8.0 | 0.00 | 0.00 | 0.00 | 79 | 1010.7 |
| 20260506163537 | 25 | 123 | 1.6 | 9.7 | 0.00 | 0.00 | 0.00 | 79 | 1010.7 |
| 20260506163023 | 26 | 160 | 3.2 | 14.5 | 0.00 | 0.00 | 0.00 | 77 | 1010.7 |
| 20260506162524 | 26 | 148 | 1.6 | 11.3 | 0.00 | 0.00 | 0.00 | 78 | 1010.5 |
| 20260506162025 | 25 | 172 | 4.8 | 11.3 | 0.00 | 0.00 | 0.00 | 78 | 1010.5 |
| 20260506161519 | 25 | 183 | 3.2 | 8.0 | 0.00 | 0.00 | 0.00 | 79 | 1010.5 |
| 20260506161019 | 25 | 157 | 3.2 | 9.7 | 0.00 | 0.00 | 0.00 | 80 | 1010.4 |
| 20260506160524 | 25 | 117 | 3.2 | 9.7 | 0.00 | 0.00 | 0.00 | 80 | 1010.4 |
| 20260506160035 | 25 | 143 | 4.8 | 8.0 | 0.00 | 0.00 | 0.00 | 80 | 1010.4 |
| 20260506155534 | 25 | 170 | 1.6 | 14.5 | 0.00 | 0.00 | 0.00 | 81 | 1010.6 |
| 20260506155034 | 25 | 161 | 1.6 | 6.4 | 0.00 | 0.00 | 0.00 | 82 | 1010.6 |
| 20260506154518 | 24 | 111 | 1.6 | 9.7 | 0.00 | 0.00 | 0.00 | 82 | 1010.6 |
| 20260506154018 | 24 | 154 | 3.2 | 11.3 | 0.00 | 0.00 | 0.00 | 82 | 1010.5 |
| 20260506153532 | 24 | 143 | 3.2 | 11.3 | 0.00 | 0.00 | 0.00 | 83 | 1010.5 |
| 20260506153028 | 23 | 157 | 1.6 | 8.0 | 0.00 | 0.00 | 0.00 | 84 | 1010.5 |
| 20260506152519 | 23 | 141 | 1.6 | 8.0 | 0.00 | 0.00 | 0.00 | 84 | 1010.8 |
| 20260506152017 | 23 | 163 | 3.2 | 4.8 | 0.00 | 0.00 | 0.00 | 84 | 1010.8 |
| 20260506151553 | 23 | 141 | 1.6 | 6.4 | 0.00 | 0.00 | 0.00 | 85 | 1010.8 |
| 20260506151015 | 23 | 142 | 1.6 | 6.4 | 0.00 | 0.00 | 0.00 | 84 | 1010.8 |
| 20260506150530 | 23 | 146 | 1.6 | 12.9 | 0.00 | 0.00 | 0.00 | 85 | 1010.8 |
| 20260506150032 | 23 | 24 | 1.6 | 12.9 | 0.00 | 0.00 | 0.00 | 85 | 1010.8 |
| 20260506145516 | 22 | 5 | 1.6 | 12.9 | 0.00 | 0.00 | 0.00 | 85 | 1010.8 |
| 20260506145033 | 22 | 139 | 1.6 | 4.8 | 0.00 | 0.00 | 0.00 | 86 | 1010.8 |
| 20260506144534 | 22 | 128 | 0.0 | 8.0 | 0.00 | 0.00 | 0.00 | 86 | 1010.8 |
| 20260506144016 | 22 | 142 | 1.6 | 8.0 | 0.00 | 0.00 | 0.00 | 86 | 1010.8 |
| 20260506143530 | 22 | 155 | 3.2 | 8.0 | 0.00 | 0.00 | 0.00 | 86 | 1010.8 |
| 20260506143017 | 22 | 212 | 1.6 | 11.3 | 0.00 | 0.00 | 0.00 | 87 | 1010.8 |
| 20260506142550 | 22 | 135 | 3.2 | 11.3 | 0.00 | 0.00 | 0.00 | 87 | 1010.8 |
| 20260506142028 | 22 | 160 | 1.6 | 6.4 | 0.00 | 0.00 | 0.00 | 88 | 1010.8 |
| 20260506141517 | 22 | 175 | 1.6 | 6.4 | 0.00 | 0.00 | 0.00 | 88 | 1010.8 |
| 20260506141030 | 21 | 185 | 3.2 | 6.4 | 0.00 | 0.00 | 0.00 | 88 | 1010.8 |
| 20260506140538 | 21 | 150 | 1.6 | 9.7 | 0.00 | 0.00 | 0.00 | 88 | 1010.8 |
| 20260506140030 | 21 | 170 | 3.2 | 4.8 | 0.00 | 0.00 | 0.00 | 89 | 1010.8 |
| 20260506135533 | 21 | 169 | 3.2 | 6.4 | 0.00 | 0.00 | 0.00 | 89 | 1011.1 |
| 20260506135023 | 21 | 72 | 3.2 | 6.4 | 0.00 | 0.00 | 0.00 | 89 | 1011.1 |
| 20260506134529 | 21 | 138 | 1.6 | 4.8 | 0.00 | 0.00 | 0.00 | 90 | 1011.1 |
| 20260506134107 | 21 | 129 | 3.2 | 8.0 | 0.00 | 0.00 | 0.00 | 90 | 1011.2 |
| 20260506133545 | 21 | 165 | 1.6 | 9.7 | 0.00 | 0.00 | 0.00 | 90 | 1011.2 |
| 20260506133102 | 21 | 85 | 3.2 | 9.7 | 0.00 | 0.00 | 0.00 | 90 | 1011.2 |
| 20260506132534 | 20 | 147 | 1.6 | 6.4 | 0.00 | 0.00 | 0.00 | 90 | 1011.3 |
| 20260506132016 | 20 | 128 | 1.6 | 9.7 | 0.00 | 0.00 | 0.00 | 90 | 1011.3 |
| 20260506131530 | 20 | 192 | 1.6 | 9.7 | 0.00 | 0.00 | 0.00 | 90 | 1011.3 |
| 20260506130537 | 20 | 184 | 1.6 | 9.7 | 0.00 | 0.00 | 0.00 | 90 | 1011.3 |
| 20260506130020 | 20 | 219 | 3.2 | 9.7 | 0.00 | 0.00 | 0.00 | 90 | 1011.3 |
| 20260506125527 | 20 | 160 | 3.2 | 8.0 | 0.00 | 0.00 | 0.00 | 90 | 1011.3 |
| 20260506125059 | 20 | 151 | 0.0 | 9.7 | 0.00 | 0.00 | 0.00 | 90 | 1011.3 |
| 20260506124548 | 20 | 151 | 1.6 | 9.7 | 0.00 | 0.00 | 0.00 | 90 | 1011.3 |
| 20260506124040 | 20 | 155 | 0.0 | 4.8 | 0.00 | 0.00 | 0.00 | 90 | 1011.1 |
| 20260506123543 | 20 | 155 | 1.6 | 8.0 | 0.00 | 0.00 | 0.00 | 90 | 1011.1 |
| 20260506123041 | 20 | 150 | 3.2 | 8.0 | 0.00 | 0.00 | 0.00 | 90 | 1011.1 |
| 20260506122540 | 20 | 151 | 4.8 | 8.0 | 0.00 | 0.00 | 0.00 | 90 | 1010.8 |
| 20260506122014 | 20 | 355 | 1.6 | 8.0 | 0.00 | 0.00 | 0.00 | 90 | 1010.8 |
| 20260506121532 | 20 | 346 | 3.2 | 8.0 | 0.00 | 0.00 | 0.00 | 90 | 1010.8 |
| 20260506121043 | 20 | 154 | 0.0 | 3.2 | 0.00 | 0.00 | 0.00 | 89 | 1010.3 |
| 20260506120528 | 20 | 154 | 0.0 | 6.4 | 0.00 | 0.00 | 0.00 | 89 | 1010.3 |
| 20260506115549 | 20 | 160 | 1.6 | 6.4 | 0.00 | 0.00 | 0.00 | 89 | 1010.2 |
| 20260506115039 | 20 | 167 | 3.2 | 6.4 | 0.00 | 0.00 | 0.00 | 89 | 1010.2 |
| 20260506114542 | 20 | 172 | 3.2 | 4.8 | 0.00 | 0.00 | 0.00 | 89 | 1010.2 |
| 20260506114032 | 20 | 218 | 1.6 | 6.4 | 0.00 | 0.00 | 0.00 | 89 | 1009.8 |
| 20260506113518 | 20 | 157 | 1.6 | 6.4 | 0.00 | 0.00 | 0.00 | 89 | 1009.8 |
| 20260506113020 | 20 | 150 | 0.0 | 6.4 | 0.00 | 0.00 | 0.00 | 89 | 1009.8 |
| 20260506112536 | 20 | 150 | 1.6 | 6.4 | 0.00 | 0.00 | 0.00 | 88 | 1009.8 |
| 20260506112019 | 19 | 180 | 1.6 | 11.3 | 0.00 | 0.00 | 0.00 | 88 | 1009.8 |
| 20260506111522 | 19 | 226 | 3.2 | 11.3 | 0.00 | 0.00 | 0.00 | 88 | 1009.8 |
| 20260506111054 | 19 | 184 | 3.2 | 9.7 | 0.00 | 0.00 | 0.00 | 88 | 1009.7 |
| 20260506110524 | 20 | 177 | 4.8 | 9.7 | 0.00 | 0.00 | 0.00 | 88 | 1009.7 |
| 20260506110032 | 19 | 158 | 1.6 | 4.8 | 0.00 | 0.00 | 0.00 | 88 | 1009.7 |
| 20260506105535 | 19 | 161 | 0.0 | 3.2 | 0.00 | 0.00 | 0.00 | 88 | 1009.4 |
| 20260506105021 | 19 | 140 | 0.0 | 6.4 | 0.00 | 0.00 | 0.00 | 88 | 1009.4 |
| 20260506104527 | 19 | 157 | 0.0 | 8.0 | 0.00 | 0.00 | 0.00 | 87 | 1009.4 |
| 20260506104020 | 19 | 173 | 1.6 | 8.0 | 0.00 | 0.00 | 0.00 | 87 | 1009.2 |
| 20260506103533 | 20 | 171 | 4.8 | 8.0 | 0.00 | 0.00 | 0.00 | 87 | 1009.2 |
| 20260506103028 | 20 | 147 | 1.6 | 6.4 | 0.00 | 0.00 | 0.00 | 87 | 1009.2 |
| 20260506102533 | 20 | 242 | 1.6 | 8.0 | 0.00 | 0.00 | 0.00 | 87 | 1009.2 |
| 20260506102046 | 20 | 107 | 1.6 | 9.7 | 0.00 | 0.00 | 0.00 | 87 | 1009.2 |
| 20260506101536 | 20 | 141 | 3.2 | 9.7 | 0.00 | 0.00 | 0.00 | 87 | 1009.2 |
| 20260506101024 | 20 | 123 | 1.6 | 8.0 | 0.00 | 0.00 | 0.00 | 86 | 1008.9 |
| 20260506100555 | 20 | 182 | 1.6 | 3.2 | 0.00 | 0.00 | 0.00 | 86 | 1008.9 |
| 20260506100025 | 20 | 182 | 1.6 | 6.4 | 0.00 | 0.00 | 0.00 | 86 | 1008.9 |
| 20260506095533 | 20 | 184 | 3.2 | 6.4 | 0.00 | 0.00 | 0.00 | 86 | 1008.7 |
| 20260506095022 | 20 | 169 | 1.6 | 4.8 | 0.00 | 0.00 | 0.00 | 86 | 1008.7 |
| 20260506094021 | 20 | 145 | 3.2 | 9.7 | 0.00 | 0.00 | 0.00 | 86 | 1008.6 |
| 20260506093530 | 20 | 145 | 1.6 | 6.4 | 0.00 | 0.00 | 0.00 | 86 | 1008.6 |
| 20260506093019 | 20 | 159 | 1.6 | 6.4 | 0.00 | 0.00 | 0.00 | 85 | 1008.6 |
| 20260506092539 | 20 | 174 | 3.2 | 6.4 | 0.00 | 0.00 | 0.00 | 85 | 1008.5 |
| 20260506092041 | 20 | 157 | 1.6 | 4.8 | 0.00 | 0.00 | 0.00 | 85 | 1008.5 |
| 20260506091524 | 20 | 157 | 3.2 | 4.8 | 0.00 | 0.00 | 0.00 | 85 | 1008.5 |
| 20260506091020 | 20 | 172 | 1.6 | 3.2 | 0.00 | 0.00 | 0.00 | 85 | 1008.2 |
| 20260506090518 | 20 | 172 | 1.6 | 3.2 | 0.00 | 0.00 | 0.00 | 85 | 1008.2 |
| 20260506090015 | 20 | 172 | 1.6 | 8.0 | 0.00 | 0.00 | 0.00 | 84 | 1008.2 |
| 20260506085536 | 20 | 175 | 3.2 | 8.0 | 0.00 | 0.00 | 0.00 | 84 | 1008.0 |
| 20260506085032 | 20 | 165 | 3.2 | 6.4 | 0.00 | 0.00 | 0.00 | 84 | 1008.0 |
| 20260506084530 | 20 | 158 | 0.0 | 4.8 | 0.00 | 0.00 | 0.00 | 84 | 1008.0 |
| 20260506084031 | 20 | 113 | 3.2 | 8.0 | 0.00 | 0.00 | 0.00 | 84 | 1008.2 |
| 20260506083519 | 20 | 163 | 3.2 | 12.9 | 0.00 | 0.00 | 0.00 | 84 | 1008.2 |
| 20260506083024 | 20 | 157 | 3.2 | 11.3 | 0.00 | 0.00 | 0.00 | 84 | 1008.2 |
| 20260506082526 | 20 | 146 | 1.6 | 6.4 | 0.00 | 0.00 | 0.00 | 84 | 1008.2 |
| 20260506081531 | 20 | 74 | 1.6 | 9.7 | 0.00 | 0.00 | 0.00 | 83 | 1008.2 |
| 20260506081020 | 20 | 159 | 1.6 | 9.7 | 0.00 | 0.00 | 0.00 | 83 | 1008.2 |
| 20260506080520 | 20 | 161 | 0.0 | 4.8 | 0.00 | 0.00 | 0.00 | 83 | 1008.2 |
| 20260506073020 | 20 | 175 | 1.6 | 11.3 | 0.00 | 0.00 | 0.00 | 81 | 1008.2 |
| 20260506072602 | 20 | 173 | 4.8 | 9.7 | 0.00 | 0.00 | 0.00 | 80 | 1008.3 |
| 20260506072044 | 20 | 158 | 3.2 | 8.0 | 0.00 | 0.00 | 0.00 | 80 | 1008.3 |
| 20260506071534 | 20 | 171 | 1.6 | 6.4 | 0.00 | 0.00 | 0.00 | 80 | 1008.3 |
| 20260506071016 | 21 | 148 | 3.2 | 6.4 | 0.00 | 0.00 | 0.00 | 80 | 1008.6 |
| 20260506070521 | 21 | 162 | 0.0 | 9.7 | 0.00 | 0.00 | 0.00 | 80 | 1008.6 |
| 20260506061520 | 21 | 169 | 3.2 | 9.7 | 0.00 | 0.00 | 0.00 | 78 | 1008.9 |
| 20260506061038 | 21 | 140 | 3.2 | 8.0 | 0.00 | 0.00 | 0.00 | 79 | 1009.1 |
| 20260506060557 | 21 | 159 | 1.6 | 4.8 | 0.00 | 0.00 | 0.00 | 78 | 1009.1 |
| 20260506051022 | 21 | 131 | 3.2 | 9.7 | 0.00 | 0.00 | 0.00 | 77 | 1009.1 |
| 20260506050525 | 21 | 290 | 3.2 | 9.7 | 0.00 | 0.00 | 0.00 | 77 | 1009.1 |
| 20260506045021 | 21 | 161 | 3.2 | 8.0 | 0.00 | 0.00 | 0.00 | 76 | 1008.9 |
| 20260506044539 | 21 | 150 | 3.2 | 11.3 | 0.00 | 0.00 | 0.00 | 76 | 1008.9 |
| 20260506044037 | 21 | 171 | 1.6 | 11.3 | 0.00 | 0.00 | 0.00 | 76 | 1008.6 |
| 20260506043523 | 21 | 177 | 3.2 | 14.5 | 0.00 | 0.00 | 0.00 | 76 | 1008.6 |
| 20260506043029 | 21 | 194 | 4.8 | 14.5 | 0.00 | 0.00 | 0.00 | 75 | 1008.6 |
| 20260506042544 | 22 | 94 | 4.8 | 9.7 | 0.00 | 0.00 | 0.00 | 75 | 1008.7 |
| 20260506042027 | 22 | 198 | 1.6 | 9.7 | 0.00 | 0.00 | 0.00 | 75 | 1008.7 |
| 20260506041529 | 22 | 180 | 4.8 | 11.3 | 0.00 | 0.00 | 0.00 | 75 | 1008.7 |
| 20260506041029 | 22 | 97 | 3.2 | 12.9 | 0.00 | 0.00 | 0.00 | 75 | 1008.7 |
| 20260506040033 | 22 | 146 | 1.6 | 8.0 | 0.00 | 0.00 | 0.00 | 76 | 1008.7 |
| 20260506035513 | 22 | 161 | 3.2 | 8.0 | 0.00 | 0.00 | 0.00 | 75 | 1008.7 |
| 20260506035016 | 22 | 142 | 3.2 | 8.0 | 0.00 | 0.00 | 0.00 | 75 | 1008.7 |
| 20260506034534 | 22 | 149 | 3.2 | 8.0 | 0.00 | 0.00 | 0.00 | 75 | 1008.7 |
| 20260506034024 | 22 | 167 | 3.2 | 12.9 | 0.00 | 0.00 | 0.00 | 75 | 1008.8 |
| 20260506033526 | 22 | 198 | 3.2 | 12.9 | 0.00 | 0.00 | 0.00 | 74 | 1008.8 |
| 20260506032553 | 22 | 178 | 4.8 | 17.7 | 0.00 | 0.00 | 0.00 | 75 | 1008.9 |
| 20260506032015 | 22 | 154 | 1.6 | 9.7 | 0.00 | 0.00 | 0.00 | 75 | 1008.9 |
| 20260506031525 | 21 | 139 | 1.6 | 11.3 | 0.00 | 0.00 | 0.00 | 74 | 1008.9 |
| 20260506031036 | 21 | 214 | 4.8 | 11.3 | 0.00 | 0.00 | 0.00 | 74 | 1008.6 |
| 20260506030544 | 21 | 163 | 1.6 | 8.0 | 0.00 | 0.00 | 0.00 | 75 | 1008.6 |
| 20260506030046 | 21 | 146 | 1.6 | 8.0 | 0.00 | 0.00 | 0.00 | 75 | 1008.6 |
| 20260506025532 | 21 | 200 | 1.6 | 8.0 | 0.00 | 0.00 | 0.00 | 75 | 1008.6 |
| 20260506025022 | 21 | 324 | 1.6 | 3.2 | 0.00 | 0.00 | 0.00 | 75 | 1008.6 |
| 20260506024556 | 21 | 140 | 0.0 | 4.8 | 0.00 | 0.00 | 0.00 | 74 | 1008.6 |
| 20260506023524 | 21 | 153 | 1.6 | 4.8 | 0.00 | 0.00 | 0.00 | 74 | 1008.5 |
| 20260506023028 | 21 | 188 | 1.6 | 4.8 | 0.00 | 0.00 | 0.00 | 74 | 1008.5 |
| 20260506022541 | 21 | 186 | 1.6 | 4.8 | 0.00 | 0.00 | 0.00 | 74 | 1008.2 |
| 20260506022034 | 21 | 186 | 1.6 | 3.2 | 0.00 | 0.00 | 0.00 | 74 | 1008.2 |
| 20260506021549 | 21 | 186 | 0.0 | 1.6 | 0.00 | 0.00 | 0.00 | 74 | 1008.2 |
| 20260506021031 | 21 | 186 | 0.0 | 1.6 | 0.00 | 0.00 | 0.00 | 75 | 1008.3 |
| 20260506020518 | 21 | 186 | 0.0 | 1.6 | 0.00 | 0.00 | 0.00 | 75 | 1008.3 |
| 20260506020026 | 21 | 186 | 0.0 | 0.0 | 0.00 | 0.00 | 0.00 | 75 | 1008.3 |
| 20260506015535 | 21 | 186 | 0.0 | 0.0 | 0.00 | 0.00 | 0.00 | 75 | 1008.2 |
| 20260506015035 | 21 | 186 | 0.0 | 0.0 | 0.00 | 0.00 | 0.00 | 74 | 1008.2 |
| 20260506014528 | 22 | 186 | 0.0 | 0.0 | 0.00 | 0.00 | 0.00 | 74 | 1008.2 |
| 20260506014028 | 22 | 186 | 0.0 | 0.0 | 0.00 | 0.00 | 0.00 | 74 | 1008.2 |
| 20260506013525 | 22 | 186 | 0.0 | 0.0 | 0.00 | 0.00 | 0.00 | 74 | 1008.2 |
| 20260506013021 | 22 | 186 | 0.0 | 1.6 | 0.00 | 0.00 | 0.00 | 74 | 1008.2 |
| 20260506012528 | 22 | 186 | 0.0 | 1.6 | 0.00 | 0.00 | 0.00 | 74 | 1008.6 |
| 20260506012032 | 22 | 186 | 0.0 | 1.6 | 0.00 | 0.00 | 0.00 | 73 | 1008.6 |
| 20260506011034 | 22 | 186 | 0.0 | 1.6 | 0.00 | 0.00 | 0.00 | 72 | 1008.2 |
| 20260506010537 | 22 | 186 | 0.0 | 1.6 | 0.00 | 0.00 | 0.00 | 71 | 1008.2 |
| 20260506010045 | 22 | 186 | 0.0 | 0.0 | 0.00 | 0.00 | 0.00 | 72 | 1008.2 |
| 20260506005533 | 22 | 186 | 0.0 | 1.6 | 0.00 | 0.00 | 0.00 | 71 | 1008.1 |
| 20260506005029 | 23 | 186 | 0.0 | 1.6 | 0.00 | 0.00 | 0.00 | 71 | 1008.1 |
| 20260506004526 | 23 | 186 | 0.0 | 1.6 | 0.00 | 0.00 | 0.00 | 70 | 1008.1 |
| 20260506004022 | 23 | 186 | 0.0 | 1.6 | 0.00 | 0.00 | 0.00 | 71 | 1008.0 |
| 20260506003529 | 23 | 186 | 0.0 | 1.6 | 0.00 | 0.00 | 0.00 | 71 | 1008.0 |
| 20260506003043 | 23 | 186 | 0.0 | 3.2 | 0.00 | 0.00 | 0.00 | 70 | 1008.0 |
| 20260506002537 | 23 | 186 | 1.6 | 3.2 | 0.00 | 0.00 | 0.00 | 67 | 1008.2 |
| 20260506002021 | 23 | 186 | 1.6 | 3.2 | 0.00 | 0.00 | 0.00 | 69 | 1008.2 |
| 20260506001524 | 23 | 186 | 0.0 | 3.2 | 0.00 | 0.00 | 0.00 | 68 | 1008.2 |
| 20260506001028 | 23 | 163 | 1.6 | 4.8 | 0.00 | 0.00 | 0.00 | 66 | 1008.6 |
| 20260506000542 | 23 | 163 | 1.6 | 4.8 | 0.00 | 0.00 | 0.00 | 67 | 1008.6 |
| 20260506000044 | 23 | 158 | 1.6 | 3.2 | 0.00 | 0.00 | 0.00 | 67 | 1008.6 |
| 20260505235525 | 24 | 158 | 1.6 | 3.2 | 0.00 | 0.00 | 0.00 | 67 | 1008.3 |
| 20260505235034 | 24 | 157 | 1.6 | 6.4 | 0.00 | 0.00 | 0.00 | 66 | 1008.3 |
| 20260505234523 | 24 | 157 | 1.6 | 6.4 | 0.00 | 0.00 | 0.00 | 64 | 1008.3 |
| 20260505234029 | 24 | 147 | 0.0 | 6.4 | 0.00 | 0.00 | 0.00 | 64 | 1008.6 |
| 20260505233533 | 24 | 174 | 1.6 | 6.4 | 0.00 | 0.00 | 0.00 | 65 | 1008.6 |
| 20260505233022 | 24 | 155 | 1.6 | 6.4 | 0.00 | 0.00 | 0.00 | 65 | 1008.6 |
| 20260505232527 | 24 | 169 | 1.6 | 4.8 | 0.00 | 0.00 | 0.00 | 63 | 1008.7 |
| 20260505232031 | 24 | 122 | 0.0 | 4.8 | 0.00 | 0.00 | 0.00 | 66 | 1008.7 |
| 20260505231518 | 24 | 122 | 1.6 | 4.8 | 0.00 | 0.00 | 0.00 | 63 | 1008.7 |
| 20260505231025 | 24 | 146 | 1.6 | 6.4 | 0.00 | 0.00 | 0.00 | 65 | 1008.7 |
| 20260505230535 | 24 | 147 | 1.6 | 11.3 | 0.00 | 0.00 | 0.00 | 64 | 1008.7 |
| 20260505230041 | 24 | 117 | 4.8 | 9.7 | 0.00 | 0.00 | 0.00 | 62 | 1008.7 |
| 20260505225602 | 24 | 154 | 1.6 | 8.0 | 0.00 | 0.00 | 0.00 | 63 | 1009.1 |
| 20260505225051 | 24 | 101 | 3.2 | 8.0 | 0.00 | 0.00 | 0.00 | 65 | 1009.1 |
| 20260505224541 | 24 | 183 | 1.6 | 6.4 | 0.00 | 0.00 | 0.00 | 64 | 1009.1 |
| 20260505224027 | 24 | 207 | 1.6 | 6.4 | 0.00 | 0.00 | 0.00 | 64 | 1009.0 |
| 20260505223523 | 25 | 157 | 3.2 | 6.4 | 0.00 | 0.00 | 0.00 | 62 | 1009.0 |
| 20260505223025 | 25 | 159 | 1.6 | 6.4 | 0.00 | 0.00 | 0.00 | 63 | 1009.0 |
| 20260505222531 | 25 | 161 | 1.6 | 11.3 | 0.00 | 0.00 | 0.00 | 62 | 1008.7 |
| 20260505222021 | 25 | 162 | 3.2 | 11.3 | 0.00 | 0.00 | 0.00 | 62 | 1008.7 |
| 20260505221523 | 25 | 202 | 3.2 | 9.7 | 0.00 | 0.00 | 0.00 | 61 | 1008.7 |
| 20260505221029 | 25 | 165 | 3.2 | 8.0 | 0.00 | 0.00 | 0.00 | 61 | 1008.8 |
| 20260505220519 | 25 | 150 | 3.2 | 8.0 | 0.00 | 0.00 | 0.00 | 62 | 1008.8 |
| 20260505220024 | 25 | 157 | 3.2 | 6.4 | 0.00 | 0.00 | 0.00 | 62 | 1008.8 |
| 20260505215534 | 25 | 177 | 1.6 | 6.4 | 0.00 | 0.00 | 0.00 | 63 | 1009.0 |
| 20260505215023 | 25 | 146 | 1.6 | 9.7 | 0.00 | 0.00 | 0.00 | 62 | 1009.0 |
| 20260505214542 | 25 | 177 | 3.2 | 9.7 | 0.00 | 0.00 | 0.00 | 62 | 1009.0 |
| 20260505214042 | 25 | 179 | 3.2 | 11.3 | 0.00 | 0.00 | 0.00 | 60 | 1008.9 |
| 20260505213602 | 25 | 152 | 1.6 | 11.3 | 0.00 | 0.00 | 0.00 | 61 | 1008.9 |
| 20260505213030 | 25 | 123 | 3.2 | 9.7 | 0.00 | 0.00 | 0.00 | 62 | 1008.9 |
| 20260505212520 | 25 | 103 | 3.2 | 9.7 | 0.00 | 0.00 | 0.00 | 61 | 1008.9 |
| 20260505212025 | 25 | 134 | 4.8 | 9.7 | 0.00 | 0.00 | 0.00 | 61 | 1008.9 |
| 20260505211520 | 25 | 88 | 3.2 | 11.3 | 0.00 | 0.00 | 0.00 | 60 | 1008.9 |
| 20260505211018 | 25 | 178 | 4.8 | 11.3 | 0.00 | 0.00 | 0.00 | 61 | 1008.7 |
| 20260505210517 | 25 | 141 | 3.2 | 11.3 | 0.00 | 0.00 | 0.00 | 62 | 1008.7 |
| 20260505210018 | 25 | 202 | 3.2 | 11.3 | 0.00 | 0.00 | 0.00 | 62 | 1008.7 |
| 20260505205540 | 25 | 300 | 4.8 | 9.7 | 0.00 | 0.00 | 0.00 | 61 | 1009.1 |
| 20260505205039 | 25 | 182 | 3.2 | 8.0 | 0.00 | 0.00 | 0.00 | 61 | 1009.1 |
| 20260505204538 | 25 | 140 | 3.2 | 9.7 | 0.00 | 0.00 | 0.00 | 60 | 1009.1 |
| 20260505204035 | 25 | 157 | 3.2 | 9.7 | 0.00 | 0.00 | 0.00 | 61 | 1009.1 |
| 20260505203522 | 25 | 298 | 3.2 | 8.0 | 0.00 | 0.00 | 0.00 | 63 | 1009.1 |
| 20260505203026 | 25 | 284 | 1.6 | 11.3 | 0.00 | 0.00 | 0.00 | 61 | 1009.1 |
| 20260505202519 | 25 | 87 | 4.8 | 11.3 | 0.00 | 0.00 | 0.00 | 61 | 1009.2 |
| 20260505202030 | 25 | 140 | 1.6 | 9.7 | 0.00 | 0.00 | 0.00 | 62 | 1009.2 |
| 20260505201533 | 25 | 147 | 3.2 | 9.7 | 0.00 | 0.00 | 0.00 | 61 | 1009.2 |
| 20260505201033 | 25 | 274 | 1.6 | 8.0 | 0.00 | 0.00 | 0.00 | 61 | 1009.7 |
| 20260505200518 | 25 | 161 | 3.2 | 9.7 | 0.00 | 0.00 | 0.00 | 62 | 1009.7 |
| 20260505200028 | 25 | 157 | 1.6 | 9.7 | 0.00 | 0.00 | 0.00 | 61 | 1009.7 |
| 20260505195519 | 25 | 150 | 3.2 | 8.0 | 0.00 | 0.00 | 0.00 | 62 | 1009.8 |
| 20260505195034 | 25 | 148 | 1.6 | 8.0 | 0.00 | 0.00 | 0.00 | 61 | 1009.8 |
| 20260505194537 | 25 | 153 | 3.2 | 9.7 | 0.00 | 0.00 | 0.00 | 61 | 1009.8 |
| 20260505194039 | 25 | 122 | 1.6 | 6.4 | 0.00 | 0.00 | 0.00 | 61 | 1010.0 |
| 20260505193526 | 25 | 296 | 1.6 | 4.8 | 0.00 | 0.00 | 0.00 | 63 | 1010.0 |
| 20260505193035 | 25 | 128 | 1.6 | 11.3 | 0.00 | 0.00 | 0.00 | 61 | 1010.0 |
| 20260505192534 | 25 | 198 | 6.4 | 11.3 | 0.00 | 0.00 | 0.00 | 61 | 1009.9 |
| 20260505192022 | 25 | 340 | 3.2 | 8.0 | 0.00 | 0.00 | 0.00 | 62 | 1009.9 |
| 20260505191540 | 25 | 271 | 1.6 | 6.4 | 0.00 | 0.00 | 0.00 | 62 | 1009.9 |
| 20260505191043 | 25 | 169 | 1.6 | 8.0 | 0.00 | 0.00 | 0.00 | 61 | 1010.2 |
| 20260505190531 | 25 | 181 | 1.6 | 9.7 | 0.00 | 0.00 | 0.00 | 60 | 1010.2 |
| 20260505185522 | 25 | 142 | 1.6 | 6.4 | 0.00 | 0.00 | 0.00 | 61 | 1010.4 |
| 20260505185027 | 25 | 285 | 1.6 | 11.3 | 0.00 | 0.00 | 0.00 | 62 | 1010.4 |
| 20260505184557 | 25 | 240 | 4.8 | 11.3 | 0.00 | 0.00 | 0.00 | 61 | 1010.4 |
| 20260505184021 | 25 | 313 | 3.2 | 9.7 | 0.00 | 0.00 | 0.00 | 62 | 1010.7 |
| 20260505183553 | 25 | 172 | 3.2 | 9.7 | 0.00 | 0.00 | 0.00 | 61 | 1010.7 |
| 20260505183038 | 24 | 298 | 1.6 | 8.0 | 0.00 | 0.00 | 0.00 | 63 | 1010.7 |
| 20260505182527 | 24 | 173 | 4.8 | 11.3 | 0.00 | 0.00 | 0.00 | 63 | 1010.8 |
| 20260505182029 | 24 | 147 | 1.6 | 11.3 | 0.00 | 0.00 | 0.00 | 63 | 1010.8 |
| 20260505181534 | 23 | 170 | 1.6 | 6.4 | 0.00 | 0.00 | 0.00 | 65 | 1010.8 |
| 20260505180533 | 24 | 155 | 3.2 | 9.7 | 0.00 | 0.00 | 0.00 | 62 | 1010.8 |
| 20260505180035 | 24 | 179 | 3.2 | 12.9 | 0.00 | 0.00 | 0.00 | 62 | 1010.8 |
| 20260505175521 | 24 | 137 | 1.6 | 4.8 | 0.00 | 0.00 | 0.00 | 63 | 1011.2 |
| 20260505175035 | 24 | 137 | 1.6 | 6.4 | 0.00 | 0.00 | 0.00 | 64 | 1011.2 |
| 20260505174543 | 24 | 107 | 1.6 | 9.7 | 0.00 | 0.00 | 0.00 | 63 | 1011.2 |
| 20260505174043 | 24 | 132 | 3.2 | 11.3 | 0.00 | 0.00 | 0.00 | 63 | 1011.3 |
| 20260505173017 | 25 | 185 | 3.2 | 9.7 | 0.00 | 0.00 | 0.00 | 60 | 1011.3 |
| 20260505172516 | 25 | 285 | 3.2 | 8.0 | 0.00 | 0.00 | 0.00 | 63 | 1011.3 |
| 20260505172017 | 24 | 281 | 1.6 | 6.4 | 0.00 | 0.00 | 0.00 | 63 | 1011.3 |
| 20260505171534 | 24 | 228 | 0.0 | 11.3 | 0.00 | 0.00 | 0.00 | 62 | 1011.3 |
| 20260505171035 | 24 | 173 | 4.8 | 11.3 | 0.00 | 0.00 | 0.00 | 62 | 1011.6 |
| 20260505170518 | 23 | 161 | 3.2 | 11.3 | 0.00 | 0.00 | 0.00 | 63 | 1011.6 |
| 20260505170034 | 23 | 178 | 3.2 | 11.3 | 0.00 | 0.00 | 0.00 | 64 | 1011.6 |
| 20260505165532 | 23 | 158 | 3.2 | 8.0 | 0.00 | 0.00 | 0.00 | 63 | 1011.8 |